Devils Lake, ND

11:28 AM CDT on July 26, 2017 (GMT -0500)
Devils Lake Municipal

Weather History for KDVL - January, 2014

Change the Weather History Date:

Saturday, January 18, 2014

  Actual Average Record
Temperature  
Mean Temperature 22 °F -  
Max Temperature 35 °F 17 °F 37 °F (1976)
Min Temperature 10 °F -3 °F -33 °F (1950)
Degree Days  
Heating Degree Days 42    
Moisture  
Dew Point 15 °F    
Average Humidity 73    
Maximum Humidity 80    
Minimum Humidity 65    
Precipitation  
Precipitation 0.00 in - - ()
Sea Level Pressure  
Sea Level Pressure 29.72 in    
Wind  
Wind Speed 22 mph (WNW)    
Max Wind Speed 32 mph    
Max Gust Speed 39 mph    
Visibility 7 miles    
Events      
Averages and records for this station are not official NWS values.
T = Trace of Precipitation, MM = Missing Value Source: NWS Daily Summary

Daily Weather History Graph

Daily Weather History Graph

Search for Another Location

Airport or City:

Trip Planner

Search our weather history database for the weather conditions in past years. The results will help you decide how hot, cold, wet, or windy it might be!

Date:

Astronomy

Jan. 18, 2014 Rise Set
Actual Time 8:18 AM CST 5:14 PM CST
Civil Twilight 7:43 AM CST 5:48 PM CST
Nautical Twilight 7:05 AM CST 6:27 PM CST
Astronomical Twilight 6:28 AM CST 7:04 PM CST
Moon 8:13 PM CST (1/18) 9:04 AM CST (1/18)
Length of Visible Light 10h 05m
Length of Day
8h 55m
Waning Gibbous, 94% of the Moon is Illuminated
Jan 18
Waning Gibbous
Jan 23
Last Quarter
Jan 30
New
Feb 6
First Quarter
Feb 14
Full

Hourly Weather History & Observations

Time (CST) Temp. Windchill Dew Point Humidity Pressure Visibility Wind Dir Wind Speed Gust Speed Precip Events Conditions
12:15 AM 32.0 °F 18.6 °F 26.6 °F 80% 29.40 in 3.0 mi NNW 25.3 mph - N/A   Overcast
12:35 AM 32.0 °F 17.9 °F 26.6 °F 80% 29.40 in 1.8 mi North 28.8 mph 36.8 mph N/A   Overcast
12:55 AM 30.2 °F 15.9 °F 23.0 °F 75% 29.42 in 2.5 mi North 26.5 mph 32.2 mph N/A   Mostly Cloudy
1:15 AM 28.4 °F 12.3 °F 19.4 °F 69% 29.43 in 1.2 mi North 32.2 mph 38.0 mph N/A   Overcast
1:35 AM 26.6 °F 10.0 °F 19.4 °F 74% 29.45 in 1.0 mi North 31.1 mph 36.8 mph N/A   Overcast
1:55 AM 24.8 °F 7.6 °F 17.6 °F 74% 29.48 in 1.0 mi North 31.1 mph 38.0 mph N/A   Overcast
2:15 AM 24.8 °F 7.9 °F 17.6 °F 74% 29.50 in 1.2 mi North 29.9 mph 39.1 mph N/A   Overcast
2:35 AM 24.8 °F 7.3 °F 17.6 °F 74% 29.53 in 1.2 mi North 32.2 mph 39.1 mph N/A   Overcast
2:55 AM 21.2 °F 2.4 °F 15.8 °F 80% 29.56 in 0.8 mi North 32.2 mph 39.1 mph N/A   Overcast
3:15 AM 19.4 °F 0.5 °F 12.2 °F 74% 29.59 in 0.8 mi North 29.9 mph 39.1 mph N/A   Overcast
3:35 AM 19.4 °F 0.5 °F 10.4 °F 68% 29.62 in 1.2 mi North 29.9 mph 38.0 mph N/A   Overcast
3:55 AM 17.6 °F -1.3 °F 8.6 °F 68% 29.66 in 1.2 mi North 27.6 mph 32.2 mph N/A   Overcast
4:15 AM 15.8 °F -4.4 °F 6.8 °F 68% 29.67 in 1.2 mi North 29.9 mph - N/A   Overcast
4:35 AM 12.2 °F -7.5 °F 5.0 °F 73% 29.70 in 1.8 mi North 24.2 mph - N/A   Overcast
4:55 AM 12.2 °F -7.1 °F 3.2 °F 67% 29.73 in 2.5 mi North 23.0 mph 28.8 mph N/A   Overcast
5:15 AM 12.2 °F -7.9 °F 3.2 °F 67% 29.75 in 3.0 mi North 25.3 mph 29.9 mph N/A   Overcast
5:35 AM 12.2 °F -6.7 °F 3.2 °F 67% 29.77 in 3.0 mi North 21.9 mph 27.6 mph N/A   Overcast
5:55 AM 10.4 °F -9.9 °F 3.2 °F 73% 29.78 in 4.0 mi North 24.2 mph 28.8 mph N/A   Overcast
6:15 AM 10.4 °F -7.7 °F 3.2 °F 73% 29.79 in 7.0 mi North 18.4 mph - N/A   Overcast
6:35 AM 10.4 °F -9.1 °F 3.2 °F 73% 29.81 in 7.0 mi North 21.9 mph 26.5 mph N/A   Overcast
6:55 AM 10.4 °F -7.2 °F 3.2 °F 73% 29.82 in 5.0 mi North 17.3 mph - N/A   Overcast
7:15 AM 10.4 °F -8.6 °F 3.2 °F 73% 29.83 in 10.0 mi NNW 20.7 mph - N/A   Overcast
7:35 AM 10.4 °F -9.1 °F 1.4 °F 67% 29.86 in 10.0 mi NNW 21.9 mph - N/A   Overcast
7:55 AM 10.4 °F -6.6 °F 3.2 °F 73% 29.87 in 10.0 mi NNW 16.1 mph - N/A   Overcast
8:15 AM 10.4 °F -6.6 °F 3.2 °F 73% 29.89 in 6.0 mi NNW 16.1 mph - N/A   Overcast
8:35 AM 10.4 °F -7.2 °F 3.2 °F 73% 29.89 in 5.0 mi NNW 17.3 mph - N/A   Overcast
8:55 AM 12.2 °F -4.8 °F 5.0 °F 73% 29.91 in 5.0 mi NNW 17.3 mph - N/A   Overcast
9:15 AM 12.2 °F -3.1 °F 6.8 °F 79% 29.91 in 9.0 mi North 13.8 mph - N/A   Overcast
9:35 AM 12.2 °F -2.5 °F 6.8 °F 79% 29.92 in 9.0 mi NNW 12.7 mph - N/A   Overcast
9:55 AM 12.2 °F -2.5 °F 6.8 °F 79% 29.92 in 4.0 mi NNW 12.7 mph - N/A   Overcast
10:15 AM 14.0 °F 0.5 °F 6.8 °F 73% 29.93 in 5.0 mi North 11.5 mph - N/A   Overcast
10:35 AM 14.0 °F 2.0 °F 8.6 °F 79% 29.93 in 7.0 mi NNW 9.2 mph - N/A   Overcast
10:55 AM 14.0 °F 3.9 °F 8.6 °F 79% 29.94 in 9.0 mi NW 6.9 mph - N/A   Overcast
11:15 AM 15.8 °F 4.2 °F 8.6 °F 73% 29.95 in 10.0 mi WNW 9.2 mph - N/A   Overcast
11:35 AM 15.8 °F 4.2 °F 10.4 °F 79% 29.94 in 9.0 mi WNW 9.2 mph - N/A   Overcast
11:55 AM 17.6 °F 5.7 °F 10.4 °F 73% 29.94 in 9.0 mi West 10.4 mph - N/A   Overcast
12:15 PM 17.6 °F 5.0 °F 10.4 °F 73% 29.92 in 9.0 mi West 11.5 mph - N/A   Overcast
12:35 PM 19.4 °F 7.9 °F 12.2 °F 74% 29.92 in 10.0 mi West 10.4 mph - N/A   Overcast
12:55 PM 19.4 °F 7.2 °F 14.0 °F 80% 29.90 in 10.0 mi WSW 11.5 mph - N/A   Overcast
1:15 PM 21.2 °F 8.9 °F 15.8 °F 80% 29.88 in 10.0 mi WSW 12.7 mph - N/A   Overcast
1:35 PM 23.0 °F 10.1 °F 17.6 °F 80% 29.87 in 10.0 mi West 15.0 mph - N/A   Overcast
1:55 PM 24.8 °F 11.5 °F 17.6 °F 74% 29.87 in 10.0 mi West 17.3 mph - N/A   Overcast
2:15 PM 24.8 °F 12.4 °F 19.4 °F 80% 29.86 in 10.0 mi West 15.0 mph - N/A   Overcast
2:35 PM 26.6 °F 15.2 °F 19.4 °F 74% 29.84 in 10.0 mi West 13.8 mph - N/A   Overcast
2:55 PM 26.6 °F 13.4 °F 19.4 °F 74% 29.83 in 10.0 mi West 18.4 mph - N/A   Overcast
3:15 PM 28.4 °F 17.5 °F 19.4 °F 69% 29.83 in 10.0 mi West 13.8 mph - N/A   Overcast
3:35 PM 28.4 °F 17.5 °F 19.4 °F 69% 29.81 in 10.0 mi West 13.8 mph - N/A   Scattered Clouds
3:55 PM 28.4 °F 17.0 °F 19.4 °F 69% 29.81 in 10.0 mi West 15.0 mph - N/A   Scattered Clouds
4:15 PM 28.4 °F 17.0 °F 21.2 °F 74% 29.80 in 10.0 mi West 15.0 mph - N/A   Mostly Cloudy
4:35 PM 28.4 °F 17.0 °F 21.2 °F 74% 29.79 in 10.0 mi West 15.0 mph - N/A   Partly Cloudy
4:55 PM 28.4 °F 16.2 °F 21.2 °F 74% 29.77 in 10.0 mi WSW 17.3 mph - N/A   Clear
5:15 PM 28.4 °F 17.0 °F 21.2 °F 74% 29.78 in 10.0 mi West 15.0 mph - N/A   Scattered Clouds
5:35 PM 28.4 °F 16.2 °F 23.0 °F 80% 29.75 in 10.0 mi WSW 17.3 mph - N/A   Overcast
5:55 PM 30.2 °F 19.3 °F 23.0 °F 75% 29.73 in 10.0 mi West 15.0 mph - N/A   Mostly Cloudy
6:15 PM 30.2 °F 17.4 °F 23.0 °F 75% 29.70 in 10.0 mi West 20.7 mph - N/A   Scattered Clouds
6:35 PM 30.2 °F 17.1 °F 23.0 °F 75% 29.70 in 10.0 mi West 21.9 mph 26.5 mph N/A   Scattered Clouds
6:55 PM 30.2 °F 18.1 °F 23.0 °F 75% 29.69 in 10.0 mi West 18.4 mph - N/A   Scattered Clouds
7:15 PM 30.2 °F 17.8 °F 24.8 °F 80% 29.67 in 10.0 mi WSW 19.6 mph - N/A   Partly Cloudy
7:35 PM 30.2 °F 18.1 °F 23.0 °F 75% 29.65 in 10.0 mi WSW 18.4 mph - N/A   Clear
7:55 PM 30.2 °F 18.5 °F 23.0 °F 75% 29.63 in 10.0 mi WSW 17.3 mph - N/A   Clear
8:15 PM 30.2 °F 18.1 °F 23.0 °F 75% 29.61 in 10.0 mi WSW 18.4 mph - N/A   Clear
8:35 PM 30.2 °F 17.4 °F 23.0 °F 75% 29.60 in 10.0 mi WSW 20.7 mph - N/A   Clear
8:55 PM 32.0 °F 19.5 °F 23.0 °F 69% 29.58 in 10.0 mi WSW 21.9 mph - N/A   Clear
9:15 PM 32.0 °F 19.8 °F 23.0 °F 69% 29.56 in 10.0 mi WSW 20.7 mph 26.5 mph N/A   Clear
9:35 PM 32.0 °F 18.9 °F 23.0 °F 69% 29.53 in 10.0 mi West 24.2 mph - N/A   Clear
9:55 PM 33.8 °F 21.3 °F 23.0 °F 65% 29.52 in 10.0 mi West 24.2 mph 28.8 mph N/A   Clear
10:15 PM 33.8 °F 23.2 °F 23.0 °F 65% 29.52 in 10.0 mi West 17.3 mph 29.9 mph N/A   Clear
10:35 PM 33.8 °F 21.9 °F 24.8 °F 70% 29.51 in 10.0 mi West 21.9 mph - N/A   Clear
10:55 PM 35.6 °F 24.2 °F 24.8 °F 65% 29.50 in 10.0 mi West 21.9 mph - N/A   Clear
11:15 PM 35.6 °F 24.0 °F 24.8 °F 65% 29.51 in 10.0 mi West 23.0 mph 29.9 mph N/A   Clear
11:35 PM 35.6 °F 24.2 °F 24.8 °F 65% 29.51 in 10.0 mi West 21.9 mph 28.8 mph N/A   Clear
11:55 PM 35.6 °F 24.8 °F 24.8 °F 65% 29.51 in 10.0 mi West 19.6 mph - N/A   Clear